Stations météo

Publicité
Ajaccio, France (7761): Température de l'air & dewpoint: 01.07.2020 14:00:00 - 07.07.2020 14:00:00 (CEST)Ajaccio, France (7761): Température de l'air 5cm: 01.07.2020 14:00:00 - 07.07.2020 14:00:00 (CEST)Ajaccio, France (7761): Température de l'air -20cm & Température de l'air -100cm: 01.07.2020 14:00:00 - 07.07.2020 14:00:00 (CEST)Ajaccio, France (7761): Vitesse du vent & gusts: 01.07.2020 14:00:00 - 07.07.2020 14:00:00 (CEST)Ajaccio, France (7761): Direction du vent: 01.07.2020 14:00:00 - 07.07.2020 14:00:00 (CEST)Ajaccio, France (7761): reduced air pressure: 01.07.2020 14:00:00 - 07.07.2020 14:00:00 (CEST)Ajaccio, France (7761): visibility: 01.07.2020 14:00:00 - 07.07.2020 14:00:00 (CEST)Ajaccio, France (7761): Ensoleillement: 01.07.2020 14:00:00 - 07.07.2020 14:00:00 (CEST)Ajaccio, France (7761): Quantités de précipitations: 01.07.2020 14:00:00 - 07.07.2020 14:00:00 (CEST)
Date & Time tt [°C] td [°C] tt 5cm [°C] tt -20cm [°C] tt -100cm [°C] ff [km/h] ff [knt] fx [km/h] fx [knt] dd ppp [hPa] vv [km] sd [min] rr [mm]
07.07.2020 14:00:00 27,1 18,7 37,9 30,9 26,6 22 12 33 18 SW 1011,3 18 60 0,0
07.07.2020 13:00:00 27,2 19,0 36,5 30,9 26,6 23 13 32 18 SW 1010,9 18 60 0,0
07.07.2020 12:00:00 26,2 18,6 35,3 31,1 26,6 22 12 32 17 WSW 1010,5 15 60 0,0
07.07.2020 11:00:00 26,2 19,1 35,3 31,2 26,6 21 11 30 16 WSW 1009,9 18 60 0,0
07.07.2020 10:00:00 25,8 18,5 34,8 31,4 26,6 10 6 16 9 WSW 1009,2 20 60 0,0
07.07.2020 09:00:00 25,0 17,2 26,7 31,6 26,6 5 3 15 8 WSW 1008,6 20 60 0,0
07.07.2020 08:00:00 22,1 16,4 19,7 31,8 26,6 8 4 15 8 NE 1008,0 43 60 0,0
07.07.2020 07:00:00 18,8 15,3 17,2 32,0 26,6 11 6 22 12 NE 1008,0 44 28 0,0
07.07.2020 06:00:00 18,0 15,3 16,9 32,2 26,6 9 5 19 10 NNE 1007,7 40 0 0,0
07.07.2020 05:00:00 18,2 15,6 17,2 32,3 26,6 12 6 16 9 NE 1007,3 32 0 0,0
07.07.2020 04:00:00 19,0 16,4 18,2 32,4 26,6 11 6 16 9 NE 1007,2 25 0 0,0
07.07.2020 03:00:00 20,2 17,4 19,5 32,6 26,5 8 4 12 7 ENE 1007,7 22 0 0,0
07.07.2020 02:00:00 21,7 19,3 20,4 32,7 26,6 9 5 14 8 NE 1007,9 25 0 0,0
07.07.2020 01:00:00 21,8 19,4 21,4 32,7 26,5 6 3 7 4 ENE 1008,0 21 0 0,0
07.07.2020 00:00:00 22,9 20,4 22,6 32,7 26,6 4 2 12 6 NNE 1008,1 20 0 0,0
06.07.2020 23:00:00 23,2 20,9 22,1 32,7 26,6 3 2 10 5 ENE 1008,6 25 0 0,0
06.07.2020 22:00:00 23,2 21,3 22,2 32,5 26,5 7 4 14 7 SSW 1008,8 19 0 0,0
06.07.2020 21:00:00 23,6 21,1 23,4 32,3 26,5 8 5 15 8 SW 1008,4 20 29 0,0
06.07.2020 20:00:00 25,1 21,4 27,5 32,0 26,5 9 5 22 12 SSW 1008,9 20 60 0,0
06.07.2020 19:00:00 26,0 21,7 31,2 31,7 26,5 15 8 23 12 SSW 1009,0 39 60 0,0
06.07.2020 18:00:00 26,4 19,0 32,3 31,4 26,5 12 7 20 11 SW 1009,1 40 60 0,0
06.07.2020 17:00:00 27,1 21,2 33,5 31,1 26,5 13 7 21 12 SW 1009,4 29 60 0,0
06.07.2020 16:00:00 27,1 21,2 33,9 30,8 26,5 15 8 24 13 SW 1010,1 20 60 0,0
06.07.2020 15:00:00 26,8 20,6 37,4 30,7 26,5 15 8 23 13 SW 1010,7 27 60 0,0
06.07.2020 14:00:00 26,8 21,1 37,0 30,6 26,5 18 10 31 17 SW 1011,2 28 60 0,0
06.07.2020 13:00:00 26,4 20,7 36,8 30,6 26,5 19 11 29 16 SW 1011,1 33 60 0,0
06.07.2020 12:00:00 26,3 20,6 36,4 30,6 26,4 20 11 27 15 SW 1011,5 37 60 0,0
06.07.2020 11:00:00 25,3 20,1 34,9 30,8 26,5 16 9 24 13 SW 1011,7 44 60 0,0
06.07.2020 10:00:00 24,2 19,7 33,2 31,0 26,4 9 5 19 10 WSW 1011,9 49 60 0,0
06.07.2020 09:00:00 23,5 16,5 27,2 31,2 26,5 6 4 11 6 SW 1012,3 49 60 0,0
06.07.2020 08:00:00 21,7 16,0 19,2 31,4 26,4 5 3 11 6 NNE 1012,2 50 60 0,0
06.07.2020 07:00:00 18,2 14,9 16,4 31,6 26,4 9 5 15 8 ENE 1012,5 45 28 0,0
06.07.2020 06:00:00 17,2 14,8 16,0 31,9 26,4 9 5 16 8 ENE 1012,6 43 0 0,0
06.07.2020 05:00:00 17,1 14,6 16,2 32,0 26,4 11 6 16 9 NE 1012,9 40 0 0,0
06.07.2020 04:00:00 17,2 15,0 16,4 32,2 26,4 11 6 16 9 NE 1013,6 40 0 0,0
06.07.2020 03:00:00 17,9 15,3 17,0 32,4 26,4 7 4 9 5 NE 1014,1 34 0 0,0
06.07.2020 02:00:00 18,5 15,6 17,6 32,5 26,4 5 3 12 6 NE 1014,5 44 0 0,0
06.07.2020 01:00:00 19,2 16,2 18,4 32,6 26,4 8 4 13 7 ENE 1014,7 45 0 0,0
06.07.2020 00:00:00 20,6 17,0 19,5 32,6 26,4 7 4 11 6 NE 1014,9 41 0 0,0
05.07.2020 23:00:00 21,3 18,1 20,3 32,5 26,4 8 5 10 6 NE 1015,0 35 0 0,0
05.07.2020 22:00:00 22,8 18,8 20,7 32,4 26,4 4 2 6 4 NE 1014,7 36 0 0,0
05.07.2020 21:00:00 23,6 18,9 23,1 32,2 26,4 6 3 16 9 S 1014,4 41 29 0,0
05.07.2020 20:00:00 24,8 19,4 27,0 31,9 26,4 10 6 19 10 SSW 1014,6 42 60 0,0
05.07.2020 19:00:00 25,7 19,6 31,3 31,6 26,3 12 6 22 12 SW 1014,8 39 60 0,0
05.07.2020 18:00:00 26,5 19,9 32,0 31,3 26,3 16 9 25 14 SSW 1015,1 31 60 0,0
05.07.2020 17:00:00 26,8 20,2 32,7 31,0 26,3 17 9 29 16 SW 1015,7 20 60 0,0
05.07.2020 16:00:00 27,0 20,1 33,3 30,7 26,3 16 9 25 13 SW 1016,1 20 60 0,0
05.07.2020 15:00:00 26,7 20,5 36,5 30,6 26,3 18 10 27 15 SW 1016,4 32 60 0,0
05.07.2020 14:00:00 26,8 20,2 37,2 30,5 26,3 18 10 26 14 SW 1016,8 35 60 0,0
05.07.2020 13:00:00 26,6 19,5 36,7 30,5 26,3 16 9 26 14 SW 1017,2 39 60 0,0
05.07.2020 12:00:00 26,3 19,7 35,3 30,6 26,3 18 10 26 14 WSW 1017,4 20 60 0,0
05.07.2020 11:00:00 25,5 19,2 34,7 30,7 26,3 16 9 25 14 WSW 1017,5 50 60 0,0
05.07.2020 10:00:00 24,5 18,9 33,2 30,9 26,3 10 6 16 9 WSW 1017,3 55 60 0,0
05.07.2020 09:00:00 23,8 18,4 27,4 31,1 26,3 7 4 13 7 SW 1017,3 52 60 0,0
05.07.2020 08:00:00 21,8 16,3 18,9 31,3 26,3 4 2 12 7 NNE 1017,3 54 60 0,0
05.07.2020 07:00:00 17,9 15,5 16,4 31,6 26,3 7 4 9 5 NE 1017,2 45 28 0,0
05.07.2020 06:00:00 17,9 15,9 16,8 31,7 26,3 5 3 10 6 NE 1017,3 32 0 0,0
05.07.2020 05:00:00 18,6 16,0 17,2 31,9 26,3 10 5 16 8 NE 1017,1 47 0 0,0
05.07.2020 04:00:00 18,7 16,1 17,5 32,1 26,3 9 5 16 9 NNE 1017,3 50 0 0,0
05.07.2020 03:00:00 18,8 16,6 17,7 32,2 26,3 10 6 14 8 NE 1017,7 47 0 0,0
05.07.2020 02:00:00 19,4 16,4 18,6 32,3 26,2 8 4 13 7 NE 1018,2 51 0 0,0
05.07.2020 01:00:00 20,6 16,8 19,6 32,4 26,2 9 5 14 8 NE 1018,1 58 0 0,0
05.07.2020 00:00:00 20,7 17,1 19,7 32,4 26,2 6 4 9 5 NE 1018,2 51 0 0,0
04.07.2020 23:00:00 22,6 17,3 21,4 32,3 26,2 6 3 8 4 NNE 1017,7 60 0 0,0
04.07.2020 22:00:00 23,5 17,3 22,4 32,2 26,2 5 3 13 7 ENE 1017,6 60 0 0,0
04.07.2020 21:00:00 24,3 17,1 23,8 31,9 26,2 7 4 21 11 NNW 1017,2 60 29 0,0
04.07.2020 20:00:00 25,9 17,5 27,1 31,6 26,2 15 8 27 15 NW 1016,8 59 60 0,0
04.07.2020 19:00:00 27,5 17,7 30,6 31,3 26,2 13 7 29 16 WNW 1016,3 60 60 0,0
04.07.2020 18:00:00 27,6 17,5 30,5 31,0 26,2 21 11 37 20 NW 1016,1 26 60 0,0
04.07.2020 17:00:00 28,1 17,6 30,9 30,7 26,1 24 13 40 22 WNW 1015,8 30 60 0,0
04.07.2020 16:00:00 28,9 17,4 31,5 30,4 26,1 21 11 43 23 NW 1015,6 31 60 0,0
04.07.2020 15:00:00 29,8 17,3 36,2 30,3 26,1 22 12 37 20 WNW 1015,5 20 60 0,0
04.07.2020 14:00:00 29,0 16,5 37,8 30,2 26,1 17 9 29 16 S 1015,8 33 60 0,0
04.07.2020 13:00:00 28,6 19,0 38,1 30,2 26,1 21 11 30 16 SSW 1016,1 20 60 0,0
04.07.2020 12:00:00 27,0 16,0 35,9 30,3 26,1 19 11 28 15 SW 1015,8 42 60 0,0
04.07.2020 11:00:00 26,4 14,8 36,4 30,4 26,1 16 8 24 13 WSW 1015,5 60 60 0,0
04.07.2020 10:00:00 27,1 11,9 30,8 30,6 26,0 6 3 13 7 NNE 1015,4 60 60 0,0
04.07.2020 09:00:00 24,0 12,3 24,8 30,8 26,1 6 4 15 8 E 1015,2 60 60 0,0
04.07.2020 08:00:00 20,2 10,6 18,1 31,1 26,1 6 3 18 10 NE 1015,2 36 60 0,0
04.07.2020 07:00:00 17,2 10,8 15,5 31,3 26,1 11 6 20 11 NNE 1014,6 56 29 0,0
04.07.2020 06:00:00 16,6 10,9 14,8 31,5 26,1 13 7 21 11 NE 1014,3 60 0 0,0
04.07.2020 05:00:00 17,0 11,7 15,5 31,7 26,0 14 8 24 13 NNE 1014,1 60 0 0,0
04.07.2020 04:00:00 17,6 12,5 16,7 31,9 26,0 10 5 20 11 NE 1014,4 60 0 0,0
04.07.2020 03:00:00 18,1 13,2 17,4 32,1 26,0 11 6 18 10 NE 1014,6 55 0 0,0
04.07.2020 02:00:00 18,6 13,7 17,7 32,2 26,0 12 6 27 15 NE 1014,8 57 0 0,0
04.07.2020 01:00:00 19,2 13,6 18,2 32,3 26,0 16 9 35 19 ENE 1015,3 57 0 0,0
04.07.2020 00:00:00 19,6 14,2 19,0 32,4 26,0 10 5 21 12 NE 1016,0 49 0 0,0
03.07.2020 23:00:00 20,2 14,3 19,3 32,3 26,0 11 6 22 12 E 1015,7 50 0 0,0
03.07.2020 22:00:00 21,8 14,4 20,3 32,3 26,0 6 4 19 10 ENE 1015,3 47 0 0,0
03.07.2020 21:00:00 23,1 14,6 22,3 32,1 26,0 15 8 31 17 WSW 1015,0 47 29 0,0
03.07.2020 20:00:00 24,5 15,7 25,9 31,9 25,9 19 10 36 19 WSW 1014,5 60 60 0,0
03.07.2020 19:00:00 26,2 15,6 31,1 31,6 25,9 15 8 28 15 SW 1013,7 20 60 0,0
03.07.2020 18:00:00 27,3 14,0 31,0 31,4 25,9 16 9 29 16 W 1013,7 20 60 0,0
03.07.2020 17:00:00 27,9 16,2 30,4 31,2 25,9 16 8 29 15 SW 1013,8 20 53 0,0
03.07.2020 16:00:00 26,6 15,3 28,0 30,9 25,9 18 10 36 19 WNW 1013,8 49 4 0,0
03.07.2020 15:00:00 27,8 15,1 31,6 30,7 25,9 16 8 27 14 WSW 1013,7 38 51 0,0
03.07.2020 14:00:00 29,2 18,3 38,5 30,6 25,8 19 10 32 17 SW 1013,6 38 60 0,0
03.07.2020 13:00:00 29,8 18,6 36,8 30,6 25,9 14 8 24 13 WSW 1013,6 40 54 0,0
03.07.2020 12:00:00 28,3 21,1 34,9 30,7 25,9 16 9 34 18 S 1013,5 36 48 0,0
03.07.2020 11:00:00 27,2 21,5 36,5 30,8 25,8 18 10 27 15 SW 1012,8 19 60 0,0
03.07.2020 10:00:00 26,2 20,3 34,4 31,0 25,8 10 5 16 9 WSW 1012,5 42 60 0,0
03.07.2020 09:00:00 26,5 19,4 28,6 31,1 25,8 3 2 10 5 E 1012,7 30 60 0,0
03.07.2020 08:00:00 23,7 18,3 22,5 31,3 25,8 6 4 14 7 NE 1012,7 39 60 0,0
03.07.2020 07:00:00 21,0 18,2 19,8 31,5 25,8 5 3 8 5 ENE 1012,5 35 29 0,0
03.07.2020 06:00:00 21,0 18,4 19,9 31,6 25,8 5 3 14 7 NE 1012,0 27 0 0,0
03.07.2020 05:00:00 21,4 18,6 20,4 31,8 25,8 8 4 14 7 NNE 1011,9 24 0 0,0
03.07.2020 04:00:00 22,6 19,9 21,3 31,9 25,8 8 4 19 10 ENE 1011,9 32 0 0,0
03.07.2020 03:00:00 23,0 20,3 22,3 32,1 25,8 8 5 13 7 ENE 1012,1 32 0 0,0
03.07.2020 02:00:00 22,5 20,0 22,6 32,2 25,8 4 2 10 5 E 1012,3 30 0 0,0
03.07.2020 01:00:00 22,7 20,4 21,6 32,3 25,8 3 2 9 5 NE 1012,5 27 0 0,0
03.07.2020 00:00:00 22,7 20,6 21,9 32,3 25,8 4 2 8 5 ESE 1012,8 15 0 0,0
02.07.2020 23:00:00 23,5 21,2 22,6 32,2 25,8 3 2 10 5 NE 1012,2 13 0 0,0
02.07.2020 22:00:00 24,1 22,0 23,1 32,1 25,7 5 3 13 7 S 1012,1 20 0 0,0
02.07.2020 21:00:00 24,6 21,9 24,2 31,9 25,7 11 6 33 18 S 1011,8 20 28 0,0
02.07.2020 20:00:00 25,9 22,0 28,0 31,6 25,7 13 7 23 13 SSW 1012,0 34 60 0,0
02.07.2020 19:00:00 26,7 21,9 30,1 31,4 25,7 19 10 36 20 S 1011,9 41 60 0,0
02.07.2020 18:00:00 27,5 22,2 31,9 31,1 25,7 19 10 31 17 S 1011,9 38 60 0,0
02.07.2020 17:00:00 27,9 22,2 31,4 30,8 25,7 22 12 37 20 S 1012,1 20 60 0,0
02.07.2020 16:00:00 27,7 22,2 33,7 30,5 25,7 23 13 32 17 SW 1011,8 31 60 0,0
02.07.2020 15:00:00 27,7 21,7 36,2 30,3 25,7 18 10 36 19 SSW 1011,8 30 60 0,0
02.07.2020 14:00:00 27,4 21,9 36,3 30,2 25,6 24 13 36 20 WSW 1012,0 30 60 0,0
02.07.2020 13:00:00 28,0 21,1 38,3 30,2 25,6 15 8 24 13 SW 1012,0 20 60 0,0
02.07.2020 12:00:00 27,5 22,0 37,2 30,3 25,6 17 9 24 13 SW 1012,3 43 60 0,0
02.07.2020 11:00:00 26,1 21,3 37,0 30,4 25,6 10 5 22 12 SW 1012,2 51 60 0,0
02.07.2020 10:00:00 26,0 21,2 33,4 30,6 25,6 11 6 20 11 SW 1012,3 53 60 0,0
02.07.2020 09:00:00 25,0 19,6 28,0 30,7 25,6 6 4 10 6 W 1011,9 56 60 0,0
02.07.2020 08:00:00 23,5 17,5 21,4 30,9 25,6 4 2 8 4 E 1011,7 52 60 0,0
02.07.2020 07:00:00 20,1 16,7 18,5 31,2 25,6 5 3 14 8 NE 1011,6 38 14 0,0
02.07.2020 06:00:00 19,3 16,5 18,5 31,3 25,6 10 5 15 8 NE 1010,9 37 0 0,0
02.07.2020 05:00:00 19,4 17,0 18,5 31,5 25,6 10 6 13 7 ENE 1010,7 35 0 0,0
02.07.2020 04:00:00 20,5 17,3 19,5 31,6 25,6 6 4 10 6 E 1010,8 43 0 0,0
02.07.2020 03:00:00 20,7 17,9 20,0 31,7 25,6 9 5 13 7 NE 1011,0 37 0 0,0
02.07.2020 02:00:00 21,8 18,6 20,9 31,8 25,5 6 4 11 6 ENE 1011,5 37 0 0,0
02.07.2020 01:00:00 22,4 19,9 21,2 31,9 25,6 6 4 12 6 ENE 1011,7 23 0 0,0
02.07.2020 00:00:00 23,7 20,6 22,4 31,9 25,5 6 3 18 10 NE 1011,6 29 0 0,0
01.07.2020 23:00:00 24,7 21,8 23,1 31,8 25,5 6 3 11 6 SSW 1011,5 41 0 0,0
01.07.2020 22:00:00 26,0 21,2 24,3 31,7 25,5 2 1 8 4 NNE 1010,6 50 0 0,0
01.07.2020 21:00:00 26,4 19,5 25,3 31,5 25,5 2 1 9 5 ENE 1010,0 55 20 0,0
01.07.2020 20:00:00 27,8 20,6 30,4 31,2 25,5 7 4 14 8 SW 1010,2 59 60 0,0
01.07.2020 19:00:00 28,5 21,0 34,3 30,9 25,5 9 5 15 8 SW 1010,5 60 60 0,0
01.07.2020 18:00:00 29,5 20,4 34,7 30,5 25,4 9 5 17 9 SW 1011,2 43 60 0,0
01.07.2020 17:00:00 29,3 19,9 34,9 30,2 25,5 12 6 19 11 SW 1011,9 20 60 0,0
01.07.2020 16:00:00 29,4 20,8 35,6 30,0 25,4 14 8 22 12 SW 1012,2 31 60 0,0
01.07.2020 15:00:00 28,3 19,5 37,9 29,8 25,4 16 8 23 12 WSW 1012,2 32 60 0,0
01.07.2020 14:00:00 28,1 19,3 38,5 29,7 25,4 15 8 25 13 SW 1012,2 36 60 0,0

tt = Température de l'air
td = dewpoint
tt 5cm = Température de l'air 5cm
tt -20cm = Température de l'air -20cm
tt -100cm = Température de l'air -100cm
ff = Vitesse du vent
fx = gusts
dd = Direction du vent
ppp = reduced air pressure
vv = visibility
sd = Ensoleillement
rr = Quantités de précipitations

stations d'obs. à proximité